Regional Weather Roundup
Issued by NWS Midland/Odessa, TX

Skip options and go directly to product.
Home | Oldest Version | Previous Version | Current Version | All | Text Only | Save Text | Print | Product List | Glossary On

Skip product version selection by date and time.   
396
ASUS44 KMAF 150910
RWRMAF
MIDLAND AREA WEATHER ROUNDUP
NATIONAL WEATHER SERVICE MIDLAND TX
400 AM CDT MON SEP 15 2014

...IN SOUTHWEST TEXAS AND SOUTHEAST NEW MEXICO...

CITY           SKY/WX    TMP DP  RH WIND       PRES   REMARKS
ALPINE         CLOUDY    61  59  91 S3        30.27F
ANDREWS        CLOUDY    64  63  97 S5        30.19F
ARTESIA        NOT AVBL
BIG SPRING     CLOUDY    66  64  91 CALM      30.19F
CARLSBAD       CLOUDY    63 N/A N/A S9        30.16F
DRYDEN           N/A     71  66  84 CALM      30.13F
FORT STOCKTON  CLOUDY    64  62  93 S7        30.17F
GUAD PASS      FOG       57  57 100 NE7       30.26F VSB 1/4
HOBBS          CLOUDY    63  63 100 S12       30.20F
MARFA          CLOUDY    61  59  94 CALM      30.26S
MIDLAND AIRPK  NOT AVBL
MIDLAND INTL   PTCLDY    65  63  93 S7        30.17F
ODESSA         CLOUDY    65  63  93 S6        30.18F
PECOS          CLOUDY    64  61  92 SE8       30.14F
PRESIDIO       FAIR      68  60  76 NE10      30.13S
SEMINOLE       CLOUDY    63  63  98 S9        30.20F
SNYDER         CLOUDY    67  65  94 SW3       30.17S
WINK           PTCLDY    65  64  97 SE9       30.14F
$$
...OTHER STATIONS IN TEXAS...

CITY           SKY/WX    TMP DP  RH WIND       PRES   REMARKS
ABILENE        CLOUDY    72  63  73 S5        30.15F
AMARILLO       CLOUDY    63  60  90 SW18G25   30.15S
AUSTIN         CLOUDY    69  67  93 CALM      30.11F
BROWNSVILLE    MOCLDY    74  73  97 N7        30.03F
CORPUS CHRISTI MOCLDY    72  68  87 N8        30.06F
DALLAS FTW     CLOUDY    72  65  78 CALM      30.12F
DEL RIO        MOCLDY    70  67  90 E5        30.10F
EL PASO        PTCLDY    66  58  75 CALM      30.14S
HOUSTON INT    PTCLDY    69  68  96 CALM      30.09S
LUBBOCK        CLOUDY    63  60  90 SW7       30.19S
SAN ANGELO     CLOUDY    72  64  76 S5        30.15S
SAN ANTONIO    MOCLDY    70  66  87 CALM      30.13F
WACO           CLOUDY    69  66  90 CALM      30.12F
WICHITA FALLS  NOT AVBL
$$
...OTHER LOCATIONS IN NEW MEXICO...

CITY           SKY/WX    TMP DP  RH WIND       PRES   REMARKS
ALAMAGORDO     CLOUDY    66  57  72 E3        30.17F
ALBUQUERQUE    PTCLDY    65  53  65 E5        30.23F
CANNON AFB     NOT AVBL
CLOVIS           N/A     63  57  82 SW9       30.23S
HOLLOMAN AFB   NOT AVBL
ROSWELL        CLOUDY    62  59  90 S8        30.18S
RUIDOSO        PTCLDY    55  55 100 W6        30.32S
SANTA FE       PTCLDY    56  50  80 CALM      30.28S
TRUTH OR CONSE CLEAR     66  56  70 CALM      30.18F
TUCUMCARI      CLOUDY    64  57  78 SW17      30.15F
$$

USA.gov is the U.S. government's official web portal to all federal, state and local government web resources and services.